Starlink 3116

operational
NORAD ID: 49146 Int'l Des: 2021-082 Owner: SPXS Country: US Constellation: starlink
LEOCIRCULAR

About Starlink 3116

Description loading...

Live Position

Loading 3D Globe...

Upcoming Passes

Altitude History

Altitude vs Time

uPlot chart will show altitude changes over time

Two-Line Element Set

1 49146U 21082S 25348.10673124 .00000764 00000-0 73266-4 0 9998
2 49146 69.9994 130.7616 0003200 272.4331 87.6461 14.97522668234790
Epoch: Dec 14, 2025 • Age: 18 hours

Current Status

Altitude 588.3 km
Velocity 7.57 km/s
Sub-Earth Point 70.06°N, 177.48°W
Launch Date Sep 14, 2021
Age 4.2 years
Type internet

Technical Details

Classification Payload
Mass 297.00 kg
Dry Mass 275.00 kg
Total Mass 297.00 kg
Length 0.20 m
Diameter 2.80 m
Span 9.00 m
Shape Box + pan
Manufacturer SPXS
Bus Type Starlink
Phase Status In Orbit
Owner/State SPXS/US

Large Constellations

Loading constellations...